カタログに戻る

COSMOS 2251 DEB

運用中LEO
NORAD 34797·DEBRIS·🇷🇺 Russia

打ち上げ Jun 16, 1993 から Plesetsk Cosmodrome

Loading…

次のパス (今後24時間)

TLE

経年Source: Space-Track

元期: Sep 12, 2026, 09:52 UTC

1 34797U 93036ABA 26255.41149353  .00001056  00000-0  29972-3 0  9995
2 34797  73.9747 308.8840 0072131 355.7012   4.3516 14.45227118913666

AllMySatでCOSMOS 2251 DEBをリアルタイム追跡

Download on the App Store